Showing default

HAWK-10C, 60575

Orbit data source: Space-Track

HAWK-10C, 60575 is a payload satellite owned by HawkEye 360 (US) in SSO that was launched on Fri, 16 Aug 2024 UTC via an FALCON 9 launch vehicle from the Air Force Western Test Range (AFWTR). Payload-class satellites include a variety of spacecraft equipped with specific instruments for various scientific and technological missions. These include communications satellites like Starlink; space stations such as the ISS; scientific satellites like the Hubble; Earth observation satellites from companies like Planet Labs, Umbra, and HawkEye 360; GPS; miniature CubeSats for education and research; and military/defense satellites.

Loading next visibility...
Identifier
60575, 2024-149DM
Orbit
SSO
Country
Flag of USUS
Related business
Manufacturer
UTIAS-SFL
Mission
Operational Commercial Sigint
Bus & Motor
HAWK2G, Unknown motor
Mass
31 kg wet, 30 kg dry
Launch date (UTC)
2024-08-16 (2 years ago)
Launch vehicle
FALCON 9
Launch site
Air Force Western Test Range (AFWTR)
Object type
Payload
Rocket body
Debris
Shape & HBR
Box + 2 Pan, 1.0 m
Radar Cross Section
0.240 m², Medium (>0.1 m² and < 1m²)

Expand to show TLE details & history
Last TLE update: 23 hours ago

TLE from 23 hours ago
0 HAWK-10C
1 60575U 24149DM  26235.16311810  .00001609  00000-0  14597-3 0  9997
2 60575  97.6696 308.4729 0003346 162.9985 197.1349 14.96679588110006
Epoch: 2026-08-23T03:54Z
TLE epoch observation values (Epoch: 2026-08-23T03:54:53.403Z)
Latitude
-0.00008°
Longitude
-81.71272°
Altitude
582.44 km
Speed
7.568 km/s
True Right ascension
20h 33m 53s
True Declination
0° 00' 00"
Sunlit
Object was in full shadow at epoch
Visualization orbit readout
Latitude
Unknown
Longitude
Unknown
Altitude
Unknown
Speed
Unknown
Apparent Right ascension
Unknown
Apparent Declination
Unknown
Sunlit
N/A
Visualization observer readout
Local Sidereal Time
18:16:54
Azimuth
Unknown
Elevation
Unknown
Doppler factor
Unknown
Orbital elements
Apogee altitude
576.499 km
Perigee altitude
571.846 km
Semi-major axis
6,952.31 km
Eccentricity
0.00033
Inclination
97.6696°
RAAN
308.4729°
Arg. of periapsis
162.9985°
True anomaly
197.12361°
Mean anomaly
197.1349°
Eccentric anomaly
197.12925°
Mean motion
3.74412 °/min
Orbital period
96.15 mins
BSTAR
0.00014597
Loading maneuver chart data...
Computing Atmospheric mass density...
Loading historical data...
Loading historical data...
Loading historical data...
Loading historical data...
Loading historical data...
Loading historical data...
Loading historical data...

Documentation

Showing up to 5 results
|